Tracking 28091 objects as of 29-Sep-2023
HD Live streaming from Space Station
objects crossing your sky now

NOAA 17 DEB

Track NOAA 17 DEB now!
10-day predictions


NORAD ID: 48184
Int'l Code: 2002-032AA
Perigee: 785.5 km
Apogee: 814.9 km
Inclination: 98.8 °
Period: 100.7 minutes
Semi major axis: 7171 km
RCS: Unknown
Launch date: June 24, 2002
Source: United States (US)
Launch site: AIR FORCE WESTERN TEST RANGE (AFWTR)

Note: This is SATELLITE DEBRIS
Your satellite tracking list
Your tracking list is empty




NASA's NSSDC Master Catalog

Two Line Element Set (TLE):
1 48184U 02032Z   23271.09419822  .00007911  00000-0  30981-2 0  9993
2 48184  98.7711 225.4940 0020433 340.4495  19.5901 14.29602997129722
Source of the keplerian elements: AFSPC